This is the latest recevied weather packets stored in our database for station/object DO1SN-13. If no packets are shown the sender has not sent any weather packets the latest 10 day(s).
| Time | Temp. | Humidity | Pressure | Rain* | Wind** | Luminosity | Snow |
|---|---|---|---|---|---|---|---|
| 1788596984 | 25° C | - | 1024.9 hPa | 0 mm | - | - | - |
| 1788596983 | 25° C | - | 1024.9 hPa | 0 mm | - | - | - |
| 1788596619 | 23.89° C | - | 1024.9 hPa | 0 mm | - | - | - |
| 1788596255 | 22.78° C | - | 1024.8 hPa | 0 mm | - | - | - |
| 1788595891 | 25° C | - | 1024.8 hPa | 0 mm | - | - | - |
| 1788595526 | 25° C | - | 1024.8 hPa | 0 mm | - | - | - |
| 1788595162 | 25° C | - | 1024.8 hPa | 0 mm | - | - | - |
| 1788594798 | 25.56° C | - | 1024.9 hPa | 0 mm | - | - | - |
| 1788594433 | 26.11° C | - | 1024.7 hPa | 0 mm | - | - | - |
| 1788594069 | 23.89° C | - | 1024.7 hPa | 0 mm | - | - | - |
| 1788593705 | 26.11° C | - | 1024.5 hPa | 0 mm | - | - | - |
| 1788593341 | 25° C | - | 1024.3 hPa | 0 mm | - | - | - |
| 1788592976 | 23.89° C | - | 1024.4 hPa | 0 mm | - | - | - |
| 1788592612 | 22.78° C | - | 1024.3 hPa | 0 mm | - | - | - |
| 1788592247 | 24.44° C | - | 1024.2 hPa | 0 mm | - | - | - |
| 1788591883 | 23.89° C | - | 1024.2 hPa | 0 mm | - | - | - |
| 1788591518 | 23.89° C | - | 1024.2 hPa | 0 mm | - | - | - |
| 1788591154 | 22.78° C | - | 1024.1 hPa | 0 mm | - | - | - |
| 1788590790 | 22.78° C | - | 1024.2 hPa | 0 mm | - | - | - |
| 1788590426 | 21.67° C | - | 1024.1 hPa | 0 mm | - | - | - |
| 1788590062 | 22.22° C | - | 1024 hPa | 0 mm | - | - | - |
| 1788589698 | 22.22° C | - | 1024 hPa | 0 mm | - | - | - |
| 1788589334 | 22.22° C | - | 1024 hPa | 0 mm | - | - | - |
| 1788588970 | 22.22° C | - | 1023.9 hPa | 0 mm | - | - | - |
| 1788587513 | 20° C | - | 1023.5 hPa | 0 mm | - | - | - |
* Rain latest hour (hover to see other rain measurements)
** Current wind speed in m/s (hover to see current wind gust speed)